Tracking 31011 objects as of 12-Jul-2025
HD Live streaming from Space Station
objects crossing your sky now

STARLINK-5768

Track STARLINK-5768 now!
10-day predictions
STARLINK-5768 is classified as:


NORAD ID: 57145
Int'l Code: 2023-090AW
Perigee: 564.5 km
Apogee: 569.2 km
Inclination: 43.0 °
Period: 95.9 minutes
Semi major axis: 6937 km
RCS: Unknown
Launch date: June 23, 2023
Source: United States (US)
Launch site: AIR FORCE EASTERN TEST RANGE (AFETR)
Your satellite tracking list
Your tracking list is empty




NASA's NSSDC Master Catalog

Two Line Element Set (TLE):
1 57145U 23090AW  25193.50123539  .00023902  00000-0  17881-2 0  9997
2 57145  43.0033 126.6753 0003429 257.5497 102.4961 15.02328314114248
Source of the keplerian elements: AFSPC